Location: Bishop�s Knoyle
(51.0728°N, 2.1714°W)
Time: 03:49:40
(UTC+00:00)

Cosmos 2026 Rocket - Pass Details

Date: 18 September 2020
Orbit: 940 x 1000 km, 82.9° (Epoch: 18 October)

Event Time Altitude Azimuth Distance (km) Brightness Sun altitude
Rises 19:54:51 0° 352° (N) 3,712 7.5 -16.0°
Reaches altitude 10° 19:57:29 10° 358° (N) 2,767 6.7 -16.4°
Maximum altitude 20:03:38 49° 73° (ENE) 1,278 4.3 -17.3°
Enters shadow 20:06:56 26° 133° (SE) 1,843 4.9 -17.7°
